Regional Weather Roundup
Issued by NWS

Home | Current Version | Previous Version | Graphics & Text | Print | Product List | Glossary On
Versions: 1 2 3 4 5 6 7 8 9 10 11 12 13 14 15 16 17 18 19 20 21 22 23 24 25 26 27 28 29 30 31 32 33 34 35 36 37 38 39 40 41 42 43 44 45 46 47 48 49 50
000
ASUS45 KBOU 190307
RWRCO

WEATHER ROUNDUP FOR COLORADO
NATIONAL WEATHER SERVICE DENVER/BOULDER CO
800 PM MST THU DEC 18 2014

NOTE: "FAIR" INDICATES FEW OR NO CLOUDS BELOW 12000 FEET WITH NO
SIGNIFICANT WEATHER AND/OR OBSTRUCTIONS TO VISIBILITY.

COZ001>005-013-030-031-190400-
...NORTHWEST COLORADO...

CITY           SKY/WX    TMP DP  RH WIND       PRES   REMARKS
CRAIG          FOG       15  14  95 CALM      30.18R VSB 3/4
HAYDEN           N/A     18  16  93 NE5       30.15S VSB 3/4 WCI  11
MEEKER         MOCLDY    15  13  91 CALM      30.17R FOG
MOUNT WERNER   NOT AVBL
STEAMBOAT SPGS CLOUDY    21  20  95 CALM      30.15R
WALDEN         PTCLDY     9   3  78 SE6       30.11S WCI  -1
$$

COZ006>008-011-190400-
...WEST CENTRAL VALLEYS...

CITY           SKY/WX    TMP DP  RH WIND       PRES   REMARKS
GRAND JUNCTION MOCLDY    31  29  92 NE5       30.17R WCI  26
MONTROSE       CLOUDY    33  31  92 CALM      30.19R
EAGLE          FLURRIES  28  27  93 CALM      30.17R
RIFLE          CLOUDY    32  30  92 CALM      30.17R
DELTA          CLOUDY    36  32  85 CALM      30.18R
NUCLA          CLOUDY    32  32 100 SE3       30.21R
$$

COZ017>023-064>068-190400-
...SOUTHWEST COLORADO...

CITY           SKY/WX    TMP DP  RH WIND       PRES   REMARKS
DURANGO        CLOUDY    28  25  88 CALM      30.13R
CORTEZ         CLEAR     30  27  88 E5        30.17R WCI  25
PAGOSA SPRINGS CLOUDY    23  23  99 CALM      30.13R
TELLURIDE      FLURRIES  23  21  93 CALM      30.15R
WOLF CREEK PAS MOCLDY    10   9  92 MISG      30.08S
$$

COZ009-010-012-014-032>034-037-058>063-190400-
...CENTRAL COLORADO...

CITY           SKY/WX    TMP DP  RH WIND       PRES   REMARKS
ASPEN          LGT SNOW  26  24  92 CALM      30.12R FOG
BUENA VISTA    MOCLDY    27  17  66 NW12      30.09R WCI  16
COPPER MTN       N/A     14   9  79 W16       30.07R WCI  -2
BERTHOUD PASS  CLOUDY     7   1  78 MISG      30.06S
COTTONWOOD PAS PTCLDY    27  14  59 W9        30.07S WCI  17
GUNNISON       PTCLDY    21  16  79 MISG      30.15R
KREMMLING      CLOUDY    14  12  92 CALM      30.16R
LEADVILLE      PTCLDY    11   7  84 NE8       30.08R WCI  -1
MONARCH PASS   CLOUDY    12  10  92 MISG      30.17S
SALIDA         PTCLDY    28  20  70 SW9       30.15S WCI  20
SUNLIGHT       LGT SNOW N/A N/A N/A CALM      30.12S
WILKERSON PASS PTCLDY    18   9  68 NW7       30.08R WCI   8
$$

COZ069>075-190400-
...SAN LUIS VALLEY/SANGRE DE CRISTO MOUNTAINS...

CITY           SKY/WX    TMP DP  RH WIND       PRES   REMARKS
ALAMOSA        MOCLDY    17  14  88 CALM      30.10R
LA VETA PASS   MOCLDY    18  14  86 MISG      30.07R
SAGUACHE       CLOUDY    27  21  80 CALM      30.11R
$$

COZ035-036-038>040-190400-
...NORTHERN COLORADO FRONT RANGE...

CITY           SKY/WX    TMP DP  RH WIND       PRES   REMARKS
DENVER INTL AP MOCLDY    29  25  85 S3        30.06R
DMNS CITY PARK   N/A     33  28  80 SW1       30.07S
AURORA         MOCLDY    28  27  99 S5        30.08R WCI  22
FRONT RANGE AP NOT AVBL
ERIE MUNI ARPT   N/A     26  23  88 CALM      30.08R
BOULDER MUN AP PTCLDY    32  27  80 CALM      30.07R
CENTENNIAL     PTCLDY    29  26  89 S5        30.07R WCI  24
BROOMFIELD     MOCLDY    32  25  74 CALM      30.07R
FORT COLLINS   PTCLDY    28  21  74 E7        30.09R WCI  21
LONGMONT       PTCLDY    31  25  80 W5        30.09S WCI  26
$$

COZ041-046-047-076>085-087-088-190400-
...PIKES PEAK/PALMER DIVIDE AND SOUTHERN FOOTHILLS...

CITY           SKY/WX    TMP DP  RH WIND       PRES   REMARKS
COLO. SPRINGS  MOCLDY    29  19  66 CALM      30.10R
A. F. ACADEMY  CLOUDY    31  21  64 SE8       30.08R WCI  24
ELLICOTT       NOT AVBL
FALCON         CLOUDY    28  20  69 S3        30.09R
FORT CARSON    PTCLDY    31  24  74 S2        30.09R
LIMON          CLEAR     25  18  74 CALM      30.09R
MONUMENT HILL  CLOUDY    30  28  93 W6        30.07R WCI  24
TRINIDAD       CLOUDY    33  27  78 W6        30.06R WCI  28
$$

COZ042>045-048>051-090-091-190400-
...NORTHEAST COLORADO...

CITY           SKY/WX    TMP DP  RH WIND       PRES   REMARKS
GREELEY ARPT   PTCLDY    25  16  68 CALM      30.07R
AKRON          MOCLDY    29  22  75 S6        30.09R WCI  23
BURLINGTON     CLEAR     29  22  75 S3        30.10R
WRAY           MOCLDY    22  21  96 W7        30.11R FOG     WCI  14
STERLING       MOCLDY    21  19  93 SW6       30.09S FOG     WCI  14
HOLYOKE        NOT AVBL
FORT MORGAN    MOCLDY    25  19  77 NE7       30.10R WCI  17
$$

COZ086-089-092>099-190400-
...SOUTHEAST COLORADO...

CITY           SKY/WX    TMP DP  RH WIND       PRES   REMARKS
PUEBLO         CLOUDY    31  24  75 E3        30.10R
LA JUNTA       MOCLDY    32  28  85 E5        30.10R WCI  27
LAMAR          PTCLDY    29  27  92 E6        30.10R WCI  23
SPRINGFIELD      N/A     24  22  91 SW5       30.09S WCI  18
$$



USA.gov is the U.S. government's official web portal to all federal, state and local government web resources and services.